Regional Weather Roundup
Issued by NWS Northern Indiana

Home | Current Version | Previous Version | Graphics & Text | Print | Product List | Glossary On
Versions: 1 2 3 4 5 6 7 8 9 10 11 12 13 14 15 16 17 18 19 20 21 22 23 24 25 26 27 28 29 30 31 32 33 34 35 36 37 38 39 40 41 42 43 44 45 46 47 48 49 50
000
ASUS43 KIWX 270200
RWRIWX

KIWX WEATHER ROUNDUP
NATIONAL WEATHER SERVICE NORTHERN INDIANA
1000 PM EDT THU MAR 26 2015

NOTE: "FAIR" INDICATES FEW OR NO CLOUDS BELOW 12,000 FEET WITH NO
SIGNIFICANT WEATHER AND/OR OBSTRUCTIONS TO VISIBILITY.

* THESE STATIONS ARE NOT UNDER NWS QUALITY CONTROL. THEY ALSO MAY NOT
  REPORT WEATHER SUCH AS PRECIPITATION OR FOG.

INZ001>027-270300-
NORTHERN INDIANA

CITY           SKY/WX    TMP DP  RH WIND       PRES   REMARKS
SOUTH BEND     CLOUDY    34  25  69 N9        30.02R WCI  27
GOSHEN         CLOUDY    32  24  72 NW9       30.00R WCI  24
ANGOLA*        CLOUDY    34  25  69 NW8       29.96R WCI  27
FORT WAYNE     MOCLDY    34  24  67 NW7       29.98R WCI  28
PERU/GRISSOM   CLOUDY    37  26  63 N9        29.98R

$$
INZ028>050-270300-
CENTRAL INDIANA

CITY           SKY/WX    TMP DP  RH WIND       PRES   REMARKS
LAFAYETTE      CLEAR     36  24  62 NW12      30.02R
KOKOMO*          N/A     37  27  65 N7        29.99R
MUNCIE*        MOCLDY    36  28  73 N6        29.97R
INDIANAPOLIS   PTCLDY    37  28  70 NW7       29.96S

$$
MIZ043>046-050>051-056>058-064>065-071>073-077>080-270300-
SOUTHWEST LOWER MICHIGAN

CITY           SKY/WX    TMP DP  RH WIND       PRES   REMARKS
BATTLE CREEK   CLOUDY    33  23  66 NW13      29.97R WCI  24
BENTON HARBOR  CLOUDY    31  28  89 VRB5      30.02R WCI  26
COLDWATER*     CLOUDY    33  23  67 NW7       29.97R WCI  27
HILLSDALE*     CLOUDY    34  22  59 NW12G20   29.93S WCI  26
HOLLAND        CLOUDY    32  24  72 NW8       30.01R WCI  25
GRAND RAPIDS   FLURRIES  30  21  69 NW9       29.99R WCI  22
KALAMAZOO      CLOUDY    33  23  66 NW10      29.99R WCI  25
STURGIS*       CLOUDY    34  23  64 CALM      29.98R
THREE RIVERS*  CLOUDY    33  24  70 NW9       30.00R WCI  25

$$
OHZ001>008-015>018-024>025-270300-
NORTHWEST OHIO

CITY           SKY/WX    TMP DP  RH WIND       PRES   REMARKS
DEFIANCE       CLOUDY    37  22  54 NW14      29.97S
FINDLAY        MOCLDY    36  26  67 NW12      29.93R
TOLEDO EXPRESS CLOUDY    36  23  59 W10       29.94S
TOLEDO METCALF CLOUDY    37  22  54 NW12      29.95R
LIMA           CLEAR     37  25  61 N9        29.94R

$$
AND FOR LAKE MICHIGAN COASTAL AND OPEN LAKE BUOY OBSERVATIONS

STATION/POSITION TEMP    WIND        PRES    VSBY  WAVE
                 AIR SEA DIR/SP/G                  HT/PER
                 (F)     (DEG/KT/KT) (MB)    (MI)  (FT/S)
CALUMET HARBOR    36     350/ 10/ 13 1015.7R
MICHIGAN CITY     33     340/ 16/ 18   N/A
BURNS HARBOR      35      30/  8/ 11 1017.6R
SAINT JOSEPH      33     340/  8/ 13 1016.9R

$$
&&



USA.gov is the U.S. government's official web portal to all federal, state and local government web resources and services.